This demonstration page uses our WeatherBlox Daily Observations layout. Learn more.

Left ArrowRight Arrow

38.20091, -84.87328

Hourly Observations for February 8, 2020

Temp ( °F °C ) Dew Point ( °F °C ) Humidity (%) Winds ( mph kmh ) Pressure ( in mb ) Visibility ( mi km ) Precip ( " mm )
12:53 am 00:53 Cloudy 30 -1.1 25 -3.9 82 82 SSW 7 11 30.10 1019 10 16 0.00 0.00
1:53 am 01:53 Mostly Cloudy 30 -1.1 25 -3.9 82 82 SSW 9 15 30.11 1020 10 16 0.00 0.00
2:53 am 02:53 Mostly Cloudy 30 -1.1 25 -3.9 82 82 SSW 6 9 30.12 1020 10 16 0.00 0.00
3:53 am 03:53 Cloudy with Light Snow 30 -1.1 26 -3.3 85 85 S 7 11 30.12 1020 4 6 0.00 0.00
4:07 am 04:07 Cloudy with Light Snow 30 -1.1 27 -2.8 88 88 S 7 11 30.13 1020 3 4 0.00 0.00
4:18 am 04:18 Cloudy with Light Snow 30 -1.1 27 -2.8 88 88 S 8 13 30.13 1020 3 5 0.00 0.00
4:53 am 04:53 Cloudy 30 -1.1 27 -2.8 88 88 SSE 8 13 30.10 1019 8 13 0.00 0.00
5:53 am 05:53 Cloudy 31 -0.6 26 -3.3 82 82 S 8 13 30.10 1019 10 16 0.00 0.00
6:53 am 06:53 Cloudy with Light Snow 31 -0.6 27 -2.8 85 85 S 8 13 30.11 1020 4 6 0.00 0.00
7:24 am 07:24 Cloudy with Light Snow 31 -0.6 27 -2.8 85 85 S 7 11 30.13 1020 3 4 0.00 0.00
7:43 am 07:43 Cloudy with Light Snow 31 -0.6 27 -2.8 85 85 S 6 9 30.14 1021 6 10 0.00 0.00
7:53 am 07:53 Cloudy with Light Snow 31 -0.6 27 -2.8 85 85 S 5 7 30.12 1020 7 11 0.00 0.00
8:22 am 08:22 Cloudy with Light Snow 32 0 27 -2.8 82 82 S 7 11 30.15 1021 3 4 0.00 0.00
8:29 am 08:29 Cloudy with Light Snow 32 0 27 -2.8 82 82 S 8 13 30.15 1021 1 2 0.00 0.00
8:35 am 08:35 Cloudy with Light Snow 32 0 27 -2.8 82 82 S 8 13 30.15 1021 3 5 0.00 0.00
8:53 am 08:53 Cloudy 32 0 27 -2.8 82 82 S 7 11 30.13 1020 10 16 0.00 0.00
9:40 am 09:40 Cloudy 33 0.6 28 -2.2 82 82 SSW 7 11 30.15 1021 10 16 0.00 0.00
9:53 am 09:53 Cloudy 33 0.6 29 -1.7 85 85 SW 7 11 30.13 1020 10 16 0.00 0.00
10:53 am 10:53 Cloudy 35 1.7 30 -1.1 82 82 SW 10 17 30.15 1021 10 16 0.00 0.00
11:53 am 11:53 Mostly Cloudy 38 3.3 30 -1.1 73 73 W 7 11 30.15 1021 10 16 0.00 0.00
12:53 pm 12:53 Cloudy 39 3.9 29 -1.7 67 67 W 6 9 30.15 1021 10 16 0.00 0.00
1:09 pm 13:09 Cloudy 38 3.3 29 -1.7 70 70 WSW 7 11 30.17 1022 10 16 0.00 0.00
1:19 pm 13:19 Cloudy 39 3.9 29 -1.7 67 67 W 7 11 30.17 1022 10 16 0.00 0.00
1:53 pm 13:53 Cloudy 39 3.9 27 -2.8 62 62 W 9 15 30.15 1021 10 16 0.00 0.00
2:53 pm 14:53 Cloudy 39 3.9 28 -2.2 65 65 W 7 11 30.16 1021 10 16 0.00 0.00
3:53 pm 15:53 Cloudy 38 3.3 29 -1.7 70 70 SW 7 11 30.18 1022 10 16 0.00 0.00
4:30 pm 16:30 Cloudy with Light Snow 37 2.8 29 -1.7 73 73 W 6 9 30.21 1023 3 4 0.00 0.00
4:42 pm 16:42 Cloudy with Light Snow 36 2.2 31 -0.6 82 82 W 3 6 30.21 1023 7 11 0.00 0.00
4:53 pm 16:53 Cloudy 37 2.8 31 -0.6 79 79 Calm 30.20 1023 10 16 0.00 0.00
5:41 pm 17:41 Cloudy with Light Snow 36 2.2 30 -1.1 79 79 WNW 12 19 30.24 1024 8 13 0.01 0.25
5:51 pm 17:51 Cloudy with Light Snow 36 2 28 -2 75 75 WNW 12 19 30.25 1025 5 8 0.01 0.25
5:53 pm 17:53 Cloudy with Light Snow 35 1.7 29 -1.7 78 78 WNW 13 20 30.24 1024 6 10 0.01 0.25
6:53 pm 18:53 Cloudy 34 1.1 28 -2.2 79 79 NW 8 13 30.26 1025 10 16 0.00 0.00
7:53 pm 19:53 Cloudy 33 0.6 27 -2.8 78 78 WNW 3 6 30.29 1026 9 14 0.00 0.00
8:24 pm 20:24 Mostly Cloudy 32 0 27 -2.8 82 82 W 3 6 30.32 1027 9 14 0.00 0.00
8:53 pm 20:53 Mostly Cloudy 32 0 26 -3.3 79 79 W 6 9 30.31 1026 10 16 0.00 0.00
9:53 pm 21:53 Partly Cloudy 28 -2.2 24 -4.4 85 85 SW 5 7 30.32 1027 8 13 0.00 0.00
10:53 pm 22:53 Partly Cloudy 28 -2.2 24 -4.4 85 85 WSW 5 7 30.34 1027 8 13 0.00 0.00
11:53 pm 23:53 Clear 26 -3.3 23 -5 88 88 SW 5 7 30.35 1028 8 13 0.00 0.00

Powered by AerisWeather